Location: Banios
(43.0451°N, 0.2335°E)
Time: 13:18:38
(UTC+00:00)

A-11 Canister half - Pass Details

Date: 17 May 2021
Orbit: 1513 x 1686 km, 47.2° (Epoch: 14 June)

Event Time Altitude Azimuth Distance (km) Brightness Sun altitude
Rises 20:08:50 0° 295° (WNW) 4,664 13.5 -8.6°
Reaches altitude 10° 20:12:00 10° 290° (WNW) 3,688 12.4 -9.1°
Maximum altitude 20:20:37 45° 221° (SW) 2,009 9.6 -10.3°
Enters shadow 20:29:20 10° 153° (SSE) 3,737 10.5 -11.6°
Drops below altitude 10° 20:29:28 10° 153° (SSE) 3,775 - -11.6°
Sets 20:32:46 0° 147° (SSE) 4,782 - -12.0°
